Date String (YYYY-MM-DD hh:mm:ss) UTC,Instrument flags,Ambient pressure (hPa),Sample flow (lpm),Bypass flow (lpm),Sample temperature (°C),Ambient temperature (°C),ASC tube jacket temperature (°C),LED temperature (°C),Box temperature (°C),Sample RH (%),Mass concentration (μg/m³),Mass concentration (μg/m³)
DateTimeUTC,F1_M11,P_M11,Q1_M11,Q2_M11,T1_M11,T2_M11,T3_M11,T4_M11,T5_M11,U1_M11,X0_M11,X2_M11
2021-08-11 11:00:00,FlowAlarm;OPCInstrumentWarning,0829.1,5.01,0.00,29.7,28.9,00.0,38.8,31.7,14.2,0045.73,0033.87
2021-08-11 11:01:00,FlowAlarm;OPCInstrumentWarning,0829.0,5.01,0.00,29.7,28.9,00.0,38.8,31.7,14.3,0045.27,0033.89
2021-08-11 11:02:00,FlowAlarm;OPCInstrumentWarning,0829.2,4.98,0.00,29.7,29.0,00.0,38.9,31.7,14.2,0044.81,0033.89
2021-08-11 11:03:00,FlowAlarm;OPCInstrumentWarning,0829.2,5.00,0.00,29.8,29.0,00.0,38.9,31.7,14.2,0044.37,0033.85
2021-08-11 11:04:00,FlowAlarm;OPCInstrumentWarning,0828.7,5.01,0.00,29.8,29.0,00.0,38.9,31.8,13.8,0044.28,0033.76
2021-08-11 11:05:00,FlowAlarm;OPCInstrumentWarning,0828.7,4.99,0.00,29.8,29.1,00.0,38.9,31.8,13.6,0043.77,0033.48
2021-08-11 11:06:00,FlowAlarm;OPCInstrumentWarning,0828.7,5.01,0.00,29.8,29.1,00.0,38.9,31.8,13.6,0043.36,0033.22
2021-08-11 11:07:00,FlowAlarm;OPCInstrumentWarning,0828.7,5.00,0.00,29.9,29.1,00.0,39.0,31.8,13.7,0042.88,0032.95
2021-08-11 11:08:00,FlowAlarm;OPCInstrumentWarning,0828.7,5.00,0.00,29.9,29.1,00.0,39.0,31.8,13.8,0042.66,0032.75
2021-08-11 11:09:00,FlowAlarm;OPCInstrumentWarning,0828.7,5.00,0.00,29.9,29.2,00.0,39.0,31.9,13.8,0042.42,0032.57
2021-08-11 11:10:00,FlowAlarm;OPCInstrumentWarning,0828.7,4.99,0.00,29.9,29.2,00.0,39.0,31.9,13.9,0043.11,0032.55
2021-08-11 11:11:00,FlowAlarm;OPCInstrumentWarning,0828.7,5.01,0.00,29.9,29.2,00.0,39.1,31.9,14.0,0043.63,0032.64
2021-08-11 11:12:00,FlowAlarm;OPCInstrumentWarning,0828.7,5.01,0.00,30.0,29.2,00.0,39.1,31.9,14.0,0044.02,0032.75
2021-08-11 11:13:00,FlowAlarm;OPCInstrumentWarning,0828.7,4.99,0.00,30.0,29.2,00.0,39.1,31.9,13.9,0044.24,0032.83
2021-08-11 11:14:00,FlowAlarm;OPCInstrumentWarning,0828.7,5.00,0.00,30.0,28.5,00.0,39.1,31.7,14.0,0044.78,0032.94
2021-08-11 11:15:00,FlowAlarm;OPCInstrumentWarning,0828.8,5.00,0.00,29.8,26.8,00.0,39.0,31.2,14.2,0045.41,0033.15
2021-08-11 11:16:00,FlowAlarm;OPCInstrumentWarning,0828.8,5.00,0.00,29.7,26.5,00.0,39.0,31.2,14.4,0045.93,0033.46
2021-08-11 11:17:00,FlowAlarm;OPCInstrumentWarning,0828.8,5.01,0.00,29.6,26.7,00.0,38.9,31.2,14.5,0046.69,0033.79
2021-08-11 11:18:00,FlowAlarm;OPCInstrumentWarning,0828.8,4.99,0.00,29.5,27.1,00.0,38.9,31.2,14.6,0047.16,0034.10
2021-08-11 11:19:00,FlowAlarm;OPCInstrumentWarning,0829.0,5.00,0.00,29.5,27.4,00.0,38.9,31.2,14.6,0047.40,0034.29
2021-08-11 11:20:00,FlowAlarm;OPCInstrumentWarning,0829.3,4.99,0.00,29.5,27.7,00.0,38.8,31.3,14.6,0047.13,0034.48
2021-08-11 11:21:00,FlowAlarm;OPCInstrumentWarning,0829.3,5.00,0.00,29.5,27.9,00.0,38.8,31.4,14.5,0046.95,0034.55
2021-08-11 11:22:00,FlowAlarm;OPCInstrumentWarning,0829.1,5.01,0.00,29.5,28.1,00.0,38.8,31.4,14.5,0047.03,0034.54
2021-08-11 11:23:00,FlowAlarm;OPCInstrumentWarning,0828.9,4.99,0.00,29.5,28.3,00.0,38.8,31.4,14.5,0047.25,0034.51
2021-08-11 11:24:00,FlowAlarm;OPCInstrumentWarning,0828.8,5.01,0.00,29.5,28.4,00.0,38.8,31.5,14.5,0047.00,0034.44
2021-08-11 11:25:00,FlowAlarm;OPCInstrumentWarning,0828.9,4.99,0.00,29.5,28.5,00.0,38.8,31.5,14.4,0046.63,0034.31
2021-08-11 11:26:00,FlowAlarm;OPCInstrumentWarning,0828.8,5.00,0.00,29.6,28.6,00.0,38.8,31.5,14.3,0046.19,0034.14
2021-08-11 11:27:00,FlowAlarm;OPCInstrumentWarning,0828.8,4.98,0.00,29.6,28.6,00.0,38.8,31.5,14.3,0046.09,0033.99
2021-08-11 11:28:00,FlowAlarm;OPCInstrumentWarning,0828.8,5.01,0.00,29.6,28.7,00.0,38.8,31.6,14.1,0045.86,0033.81
2021-08-11 11:29:00,FlowAlarm;OPCInstrumentWarning,0828.8,4.99,0.00,29.7,28.7,00.0,38.8,31.6,13.7,0045.52,0033.58
2021-08-11 11:30:00,FlowAlarm;OPCInstrumentWarning,0828.8,5.00,0.00,29.7,28.8,00.0,38.8,31.6,13.6,0045.27,0033.40
2021-08-11 11:31:00,FlowAlarm;OPCInstrumentWarning,0828.9,5.01,0.00,29.7,28.9,00.0,38.9,31.7,13.6,0045.15,0033.26
2021-08-11 11:32:00,FlowAlarm;OPCInstrumentWarning,0828.9,5.00,0.00,29.7,28.9,00.0,38.9,31.7,13.5,0044.59,0033.09
2021-08-11 11:33:00,FlowAlarm;OPCInstrumentWarning,0828.9,5.00,0.00,29.8,28.9,00.0,38.9,31.7,13.2,0045.36,0032.83
2021-08-11 11:34:00,FlowAlarm;OPCInstrumentWarning,0828.8,4.99,0.00,29.8,29.0,00.0,38.9,31.7,12.9,0044.43,0032.47
2021-08-11 11:35:00,FlowAlarm;OPCInstrumentWarning,0828.9,4.99,0.00,29.8,29.0,00.0,38.9,31.8,12.8,0044.13,0032.14
2021-08-11 11:36:00,FlowAlarm;OPCInstrumentWarning,0828.8,5.01,0.00,29.8,29.0,00.0,39.0,31.8,12.7,0043.52,0031.90
2021-08-11 11:37:00,FlowAlarm;OPCInstrumentWarning,0828.9,4.99,0.00,29.8,29.1,00.0,39.0,31.8,12.7,0043.02,0031.63
2021-08-11 11:38:00,FlowAlarm;OPCInstrumentWarning,0828.9,5.01,0.00,29.9,29.1,00.0,39.0,31.8,12.6,0042.56,0031.38
2021-08-11 11:39:00,FlowAlarm;OPCInstrumentWarning,0828.9,5.00,0.00,29.9,29.1,00.0,39.0,31.8,12.6,0042.34,0031.16
2021-08-11 11:40:00,FlowAlarm;OPCInstrumentWarning,0828.8,4.99,0.00,29.9,29.1,00.0,39.0,31.9,12.6,0042.29,0031.00
2021-08-11 11:41:00,FlowAlarm;OPCInstrumentWarning,0828.9,5.01,0.00,29.9,29.2,00.0,39.1,31.9,12.6,0042.05,0030.81
2021-08-11 11:42:00,FlowAlarm;OPCInstrumentWarning,0828.9,5.00,0.00,30.0,29.2,00.0,39.1,31.9,12.7,0041.62,0030.59
2021-08-11 11:43:00,FlowAlarm;OPCInstrumentWarning,0828.9,5.00,0.00,30.0,29.2,00.0,39.1,31.9,12.8,0041.17,0030.33
2021-08-11 11:44:00,FlowAlarm;OPCInstrumentWarning,0828.9,5.01,0.00,30.0,29.2,00.0,39.1,31.9,12.6,0039.86,0030.14
2021-08-11 11:45:00,FlowAlarm;OPCInstrumentWarning,0828.9,4.99,0.00,30.0,29.2,00.0,39.1,32.0,12.7,0040.34,0030.08
2021-08-11 11:46:00,FlowAlarm;OPCInstrumentWarning,0828.9,5.00,0.00,30.0,28.5,00.0,39.1,31.8,12.6,0040.24,0030.10
2021-08-11 11:47:00,FlowAlarm;OPCInstrumentWarning,0828.9,5.00,0.00,29.9,26.7,00.0,39.1,31.3,12.8,0040.15,0030.07
2021-08-11 11:48:00,FlowAlarm;OPCInstrumentWarning,0828.9,5.00,0.00,29.8,26.5,00.0,39.0,31.2,12.9,0040.25,0030.12
2021-08-11 11:49:00,FlowAlarm;OPCInstrumentWarning,0828.9,5.01,0.00,29.6,26.8,00.0,39.0,31.2,12.9,0040.34,0030.09
2021-08-11 11:50:00,FlowAlarm;OPCInstrumentWarning,0828.9,4.99,0.00,29.6,27.1,00.0,38.9,31.3,13.0,0040.19,0030.15
2021-08-11 11:51:00,FlowAlarm;OPCInstrumentWarning,0828.9,5.00,0.00,29.5,27.5,00.0,38.9,31.3,13.1,0039.85,0030.10
2021-08-11 11:52:00,FlowAlarm;OPCInstrumentWarning,0828.9,5.00,0.00,29.5,27.7,00.0,38.9,31.4,13.0,0039.77,0030.09
2021-08-11 11:53:00,FlowAlarm;OPCInstrumentWarning,0828.9,5.00,0.00,29.6,28.0,00.0,38.9,31.4,12.8,0039.72,0030.06
2021-08-11 11:54:00,FlowAlarm;OPCInstrumentWarning,0828.9,5.01,0.00,29.6,28.1,00.0,38.9,31.5,12.7,0040.03,0030.09
2021-08-11 11:55:00,FlowAlarm;OPCInstrumentWarning,0828.9,5.00,0.00,29.6,28.3,00.0,38.9,31.5,12.6,0040.10,0030.15
2021-08-11 11:56:00,FlowAlarm;OPCInstrumentWarning,0828.9,4.99,0.00,29.6,28.4,00.0,38.9,31.5,12.7,0039.44,0030.15
2021-08-11 11:57:00,FlowAlarm;OPCInstrumentWarning,0828.9,4.99,0.00,29.6,28.5,00.0,38.9,31.5,12.6,0039.26,0030.13
2021-08-11 11:58:00,FlowAlarm;OPCInstrumentWarning,0828.9,5.00,0.00,29.7,28.6,00.0,38.9,31.6,12.6,0039.15,0030.06
2021-08-11 11:59:00,FlowAlarm;OPCInstrumentWarning,0828.9,5.01,0.00,29.7,28.7,00.0,38.9,31.6,12.4,0038.85,0029.91
